Zurück zum Katalog

DELTA 1 DEB

AktivSSO
NORAD 12274·DEBRIS·🇺🇸 United States

Gestartet Jul 29, 1976 von Vandenberg Space Force Base

Loading…

Nächste Überflüge (nächste 24 Stunden)

TLE

AktuellSource: Space-Track

Epoche: Sep 14, 2026, 08:55 UTC

1 12274U 76077DF  26257.37180565 -.00000026  00000-0  17478-3 0  9999
2 12274 102.3998 219.9307 0105248 218.7040 297.1386 12.22301335 34839

Verfolge DELTA 1 DEB in Echtzeit mit AllMySat

Download on the App Store